GW1125 Weather Reports


time (UTC)temp
F
wind
direction
speed
knots
gust
knots
rain 1hr
in
rain 24hr
in
rain mn
in
humidity
%
barometer
mb
20260906182726 65 39 1.7 2.6 0.00 0.00 0.00 67 1015.0
20260906181706 64 94 0.0 0.0 0.00 0.00 0.00 70 1015.0
20260906180633 63 107 0.0 0.0 0.00 0.00 0.00 72 1015.0
20260906175625 64 34 0.0 0.9 0.00 0.00 0.00 73 1014.9
20260906174605 63 56 4.3 6.1 0.00 0.00 0.00 73 1014.9
20260906173603 62 115 1.7 1.7 0.00 0.00 0.00 75 1014.9
20260906172523 60 73 1.7 2.6 0.00 0.00 0.00 77 1015.0
20260906171509 60 79 0.9 1.7 0.00 0.00 0.00 77 1015.2
20260906170452 59 5 0.9 1.7 0.00 0.00 0.00 78 1015.1
20260906165449 59 113 0.0 0.0 0.00 0.00 0.00 78 1015.3
20260906164432 58 109 0.0 0.0 0.00 0.00 0.00 80 1015.4
20260906163402 57 99 0.0 0.0 0.00 0.00 0.00 80 1015.4
20260906162346 57 100 0.0 0.0 0.00 0.00 0.00 82 1015.3
20260906161326 56 103 0.0 0.0 0.00 0.00 0.00 85 1015.3
20260906160322 54 103 0.0 0.0 0.00 0.00 0.00 89 1015.4
20260906155313 53 103 0.0 0.0 0.00 0.00 0.00 91 1015.2
20260906154254 51 100 0.0 0.0 0.00 0.00 0.00 97 1015.1
20260906153248 51 101 0.0 0.0 0.00 0.00 0.00 98 1015.0
20260906152218 50 101 0.0 0.0 0.00 0.00 0.00 99 1015.1
20260906151146 50 99 0.0 0.0 0.00 0.00 0.00 99 1014.9
20260906145037 49 105 0.0 0.0 0.00 0.00 0.00 99 1015.0
20260906144030 48 104 0.0 0.0 0.00 0.00 0.00 99 1014.9
20260906143015 48 104 0.0 0.0 0.00 0.00 0.00 99 1014.9
20260906141953 48 104 0.0 0.0 0.00 0.00 0.00 99 1015.0
20260906140943 47 104 0.0 0.0 0.00 0.00 0.00 99 1015.0
20260906135932 48 104 0.0 0.0 0.00 0.00 0.00 99 1014.9
20260906134923 47 104 0.0 0.0 0.00 0.00 0.00 99 1014.8
20260906133902 47 104 0.0 0.0 0.00 0.00 0.00 99 1014.9
20260906132832 47 104 0.0 0.0 0.00 0.00 0.00 99 1014.7
20260906131830 47 104 0.0 0.0 0.00 0.00 0.00 99 1014.8
20260906130811 48 103 0.0 0.0 0.00 0.00 0.00 99 1014.8
20260906125804 48 104 0.0 0.0 0.00 0.00 0.00 99 1014.8
20260906124803 48 104 0.0 0.0 0.00 0.00 0.00 99 1015.0
20260906123732 48 104 0.0 0.0 0.00 0.00 0.00 99 1014.9
20260906122726 49 104 0.0 0.0 0.00 0.00 0.00 99 1014.9
20260906121722 49 104 0.0 0.0 0.00 0.00 0.00 99 1014.9
20260906120722 49 104 0.0 0.0 0.00 0.00 0.00 99 1014.8
20260906115701 48 104 0.0 0.0 0.00 0.00 0.00 99 1014.8
20260906114633 48 104 0.0 0.0 0.00 0.00 0.00 99 1014.8
20260906113601 48 104 0.0 0.0 0.00 0.00 0.00 98 1014.7
20260906112542 49 104 0.0 0.0 0.00 0.00 0.00 98 1014.7
20260906111507 49 104 0.0 0.0 0.00 0.00 0.00 98 1014.9
20260906110446 49 104 0.0 0.0 0.00 0.00 0.00 98 1015.1
20260906105427 49 104 0.0 0.0 0.00 0.00 0.00 98 1014.9
20260906104420 50 104 0.0 0.0 0.00 0.00 0.00 98 1014.9
20260906103347 50 104 0.0 0.0 0.00 0.00 0.00 98 1014.8
20260906102316 50 104 0.0 0.0 0.00 0.00 0.00 98 1014.8
20260906101244 50 104 0.0 0.0 0.00 0.00 0.00 97 1014.9
20260906100216 50 103 0.0 0.0 0.00 0.00 0.00 97 1014.8
20260906095149 50 103 0.0 0.0 0.00 0.00 0.00 97 1014.8
20260906094127 50 104 0.0 0.0 0.00 0.00 0.00 97 1015.1
20260906093111 51 104 0.0 0.0 0.00 0.00 0.00 97 1014.9
20260906092108 50 104 0.0 0.0 0.00 0.00 0.00 97 1014.9
20260906091054 51 104 0.0 0.0 0.00 0.00 0.00 96 1015.0
20260906090041 51 107 0.0 0.0 0.00 0.00 0.00 96 1014.9
20260906085022 51 106 0.0 0.0 0.00 0.00 0.00 96 1015.0
20260906084013 51 107 0.0 0.0 0.00 0.00 0.00 96 1014.8
20260906082941 51 106 0.0 0.0 0.00 0.00 0.00 97 1014.9
20260906081939 52 106 0.0 0.0 0.00 0.00 0.00 96 1014.8
20260906080901 52 106 0.0 0.0 0.00 0.00 0.00 97 1014.8
20260906075852 52 106 0.0 0.0 0.00 0.00 0.00 96 1014.7
20260906074841 52 107 0.0 0.0 0.00 0.00 0.00 96 1014.8
20260906073818 52 107 0.0 0.0 0.00 0.00 0.00 96 1015.1
20260906072801 52 107 0.0 0.0 0.00 0.00 0.00 96 1015.0
20260906071745 52 107 0.0 0.0 0.00 0.00 0.00 96 1015.4
20260906070721 52 107 0.0 0.0 0.00 0.00 0.00 95 1015.1
20260906065717 53 107 0.0 0.0 0.00 0.00 0.00 95 1015.1
20260906064705 53 107 0.0 0.0 0.00 0.00 0.00 94 1015.1
20260906063628 53 107 0.0 0.0 0.00 0.00 0.00 94 1015.1
20260906062615 53 106 0.0 0.0 0.00 0.00 0.00 93 1015.1
20260906061538 53 106 0.0 0.0 0.00 0.00 0.00 92 1015.3
20260906060531 54 107 0.0 0.0 0.00 0.00 0.00 91 1015.1
20260906055512 54 107 0.0 0.0 0.00 0.00 0.00 91 1015.2
20260906054501 55 107 0.0 0.0 0.00 0.00 0.00 90 1015.4
20260906053450 55 107 0.0 0.0 0.00 0.00 0.00 89 1015.3
20260906052427 55 107 0.0 0.0 0.00 0.00 0.00 88 1015.4
20260906051404 56 107 0.0 0.0 0.00 0.00 0.00 87 1015.4
20260906050342 56 108 0.0 0.0 0.00 0.00 0.00 87 1015.4
20260906045325 56 108 0.0 0.0 0.00 0.00 0.00 87 1015.6
20260906044306 56 108 0.0 0.0 0.00 0.00 0.00 86 1015.6
20260906043241 57 105 0.0 0.0 0.00 0.00 0.00 85 1015.4
20260906042207 56 103 0.0 0.0 0.00 0.00 0.00 86 1015.7
20260906041138 57 107 0.0 0.0 0.00 0.00 0.00 84 1015.7
20260906040129 57 107 0.0 0.0 0.00 0.00 0.00 83 1015.5
20260906035058 58 107 0.0 0.0 0.00 0.00 0.00 81 1015.6
20260906034056 58 107 0.0 0.0 0.00 0.00 0.00 80 1015.4
20260906033044 58 108 0.0 0.0 0.00 0.00 0.00 79 1015.5
20260906032042 59 104 0.0 0.0 0.00 0.00 0.00 78 1015.1
20260906031034 59 104 0.0 0.0 0.00 0.00 0.00 79 1015.2
20260906030011 60 104 0.0 0.0 0.00 0.00 0.00 77 1015.2
20260906024959 61 104 0.0 0.0 0.00 0.00 0.00 74 1015.2
20260906023929 61 105 0.0 0.0 0.00 0.00 0.00 73 1015.3
20260906022908 62 104 0.0 0.0 0.00 0.00 0.00 69 1015.2
20260906021851 63 105 0.0 0.0 0.00 0.00 0.00 67 1015.2
20260906020848 64 103 0.0 0.0 0.00 0.00 0.00 67 1015.3
20260906015831 65 107 0.0 0.0 0.00 0.00 0.00 61 1015.2
20260906014759 67 101 0.0 0.0 0.00 0.00 0.00 57 1015.2
20260906013732 67 106 0.0 0.0 0.00 0.00 0.00 60 1015.0
20260906012658 67 98 0.0 0.0 0.00 0.00 0.00 56 1015.1
20260906011647 68 101 0.0 0.0 0.00 0.00 0.00 55 1015.0
20260906010626 68 98 0.0 0.0 0.00 0.00 0.00 55 1015.0
20260906005624 67 99 0.0 0.0 0.00 0.00 0.00 55 1015.1
20260906004557 68 89 0.0 0.9 0.00 0.00 0.00 54 1015.1
20260906003547 68 73 1.7 1.7 0.00 0.00 0.00 55 1014.9
20260906002503 69 102 0.0 0.0 0.00 0.00 0.00 56 1014.9
20260906001455 70 101 0.0 0.0 0.00 0.00 0.00 52 1015.0
20260906000421 69 73 0.9 1.7 0.00 0.00 0.00 53 1015.1
20260905235352 69 101 1.7 1.7 0.00 0.00 0.00 55 1015.1
20260905234337 69 93 0.9 1.7 0.00 0.00 0.00 55 1015.2
20260905233335 69 99 0.9 0.9 0.00 0.00 0.00 56 1015.0
20260905232332 68 98 0.0 0.0 0.00 0.00 0.00 60 1015.1
20260905231306 68 103 0.0 0.0 0.00 0.00 0.00 62 1015.0
20260905230256 68 99 0.0 0.0 0.00 0.00 0.00 63 1015.1
20260905225243 68 70 1.7 1.7 0.00 0.00 0.00 60 1015.3
20260905224238 70 106 0.0 0.0 0.00 0.00 0.00 57 1015.4
20260905223234 69 151 0.9 0.9 0.00 0.00 0.00 56 1015.6
20260905222220 69 106 0.0 0.0 0.00 0.01 0.00 58 1015.7
20260905221154 68 107 0.0 0.0 0.00 0.01 0.00 62 1015.9
20260905220139 68 97 0.0 0.0 0.00 0.01 0.00 60 1015.9
20260905215114 68 92 0.9 1.7 0.00 0.01 0.00 61 1016.1
20260905214055 66 105 0.0 0.0 0.00 0.01 0.00 66 1016.1
20260905213026 66 106 0.0 0.0 0.00 0.01 0.00 66 1016.2
20260905212022 65 102 0.0 0.0 0.00 0.01 0.00 71 1016.2
20260905211000 63 105 0.0 0.0 0.00 0.01 0.00 76 1016.5
20260905205924 62 108 0.0 0.0 0.00 0.01 0.00 79 1016.6
20260905204910 60 104 0.0 0.0 0.00 0.01 0.00 81 1016.6
20260905203843 59 104 0.0 0.0 0.00 0.01 0.00 84 1016.7
20260905202839 59 104 0.0 0.0 0.00 0.01 0.00 85 1016.6
20260905201836 58 104 0.0 0.0 0.00 0.01 0.00 86 1016.6
20260905200832 58 104 0.0 0.0 0.00 0.01 0.00 87 1016.8
20260905195828 58 104 0.0 0.0 0.00 0.01 0.00 87 1016.8
20260905194755 58 104 0.0 0.0 0.00 0.01 0.00 88 1016.8
20260905193753 58 104 0.0 0.0 0.00 0.01 0.00 87 1016.7
20260905192753 58 104 0.0 0.0 0.00 0.01 0.00 85 1016.8
20260905191743 59 104 0.0 0.0 0.00 0.01 0.00 83 1016.9
20260905190731 59 104 0.0 0.0 0.00 0.01 0.00 83 1017.1
20260905185729 59 104 0.0 0.0 0.00 0.01 0.00 83 1017.1
20260905184723 59 117 0.0 0.0 0.00 0.01 0.00 81 1017.1
20260905183703 59 116 0.0 0.0 0.00 0.01 0.00 81 1017.2